BEIDOU-2 IGSO-3

Last updated on Sat Jun 21 2025 00:02:43 GMT+0000 (Coordinated Universal Time)

1 37384U 11013A 25171.44215185 -.00000199 00000+0 00000+0 0 9995 2 37384 61.8892 43.5767 0030661 176.3191 315.9327 1.00265124 52038
UTC large
Height (km)
Speed (km/s)
/
Latitude / Longitude
Inclination (degrees)
Orbital Period (minutes)
Azimuth
Elevation
Range (km)
Doppler Factor

Next 0 passes for location: London (51.5072 / 0.1276)

Sorry there are no passes over London.